Regional Weather Roundup
Issued by NWS

Home | Current Version | Previous Version | Text Only | Print | Product List | Glossary Off
Versions: 1 2 3 4 5 6 7 8 9 10 11 12 13 14 15 16 17 18 19 20 21 22 23 24 25 26 27 28 29 30 31 32 33 34 35 36 37 38 39 40 41 42 43 44 45 46 47 48 49 50

000
ASUS43 KLOT 100306
RWRIL

ILLINOIS REGIONAL WEATHER ROUNDUP
NATIONAL WEATHER SERVICE CHICAGO/ROMEOVILLE IL
1000 PM CDT WED JUL 09 2014

NOTE: "FAIR" INDICATES FEW OR NO CLOUDS BELOW 12,000 FEET WITH NO
SIGNIFICANT WEATHER AND/OR OBSTRUCTIONS TO VISIBILITY.

* THESE STATIONS ARE NOT UNDER NWS QUALITY CONTROL. THEY ALSO MAY NOT
  REPORT WEATHER SUCH AS PRECIPITATION OR FOG.

ILZ001-002-007-009-015-016-024-100400-
NORTHWEST ILLINOIS

CITY           SKY/WX    TMP DP  RH WIND       PRES   REMARKS
MOLINE         CLEAR     64  58  80 CALM      30.03R
STERLING*      CLEAR     63  55  77 CALM      30.04S
SAVANNA*       CLEAR     65  56  74 CALM      30.04R
$$

ILZ003-004-008-010-011-017-018-100400-
NORTH CENTRAL ILLINOIS

CITY           SKY/WX    TMP DP  RH WIND       PRES   REMARKS
ROCKFORD       CLEAR     64  54  69 CALM      30.07R
FREEPORT*      CLEAR     59  55  87 CALM      30.07R
ROCHELLE*      CLEAR     61  56  82 CALM      30.05R
DE KALB*       CLEAR     63  54  71 CALM      30.05R
PERU*          CLEAR     65  58  76 NE5       30.05R
$$

ILZ005-006-012>014-019>023-100400-
NORTHEAST ILLINOIS

CITY           SKY/WX    TMP DP  RH WIND       PRES   REMARKS
CHICAGO-OHARE  CLEAR     68  54  60 E3        30.04R
CHICAGO-MIDWAY CLEAR     69  58  67 NE6       30.04R
AURORA         CLEAR     61  55  81 CALM      30.04R
LANSING*       CLEAR     66  58  77 NE5       30.04R
JOLIET*        CLEAR     64  53  66 CALM      30.04R
WAUKEGAN       CLEAR     58  55  90 CALM      30.04R
DUPAGE AIRPORT CLEAR     65  52  62 CALM      30.04R
KANKAKEE*      CLEAR     67  56  69 N3        30.04R
WHEELING       CLEAR     66  58  75 CALM      30.05R
MORRIS*        CLEAR     63  58  84 CALM      30.04R
ROMEOVILLE*    CLEAR     65  52  63 N3        30.04R
NORTHERLY ISL    N/A     65  60  84 NE2         N/A
$$

LMZ740>746-100400-
SOUTHERN LAKE MICHIGAN

STATION/POSITION SKY/WX   TEMP    WIND        PRES    VSBY  WAVE
                          AIR SEA DIR/SP/G                  HT/PER
                          (F)     (DEG/KT/KT) (MB)    (MI)  (FT/S)
SOUTHERN BUOY              58 57  360/  2/  4 1017.6R         0
WAUKEGAN HARBOR            62     170/  2/  3 1018.3S
HARRISON CRIB              65      80/  4/  5   N/A
BURNHAM HARBOR             65      50/  2/  4   N/A
CALUMET HARBOR             67      20/  4/  5 1017.7R
MICHIGAN CITY              68      10/  8/  9   N/A
$$

ILZ025>027-034>036-040-047-049-050-058-095>099-100400-
WEST-CENTRAL ILLINOIS

CITY           SKY/WX    TMP DP  RH WIND       PRES   REMARKS
QUINCY         CLEAR     68  59  73 CALM      30.06R
GALESBURG*     CLEAR     64  61  90 CALM      30.05R
MACOMB*        CLEAR     63  60  91 W3        30.07R
JACKSONVILLE*  CLEAR     67  59  77 CALM      30.06R
PITTSFIELD*    CLEAR     66  60  82 CALM      30.07R
$$

ILZ028>032-037-038-041>044-048-051>054-059>061-100400-
CENTRAL ILLINOIS

CITY           SKY/WX    TMP DP  RH WIND       PRES   REMARKS
PONTIAC        CLEAR     63  61  94 CALM      30.04R
BLOOMINGTON    CLEAR     68  57  67 N5        30.06R
DECATUR        CLEAR     67  58  72 N6        30.04R
PEORIA         CLEAR     68  58  70 CALM      30.04R
LACON*         CLEAR     63  57  83 CALM      30.03R
LINCOLN*       CLEAR     66  60  81 CALM      30.02R
SPRINGFIELD    CLEAR     64  60  87 W3        30.04R
TAYLORVILLE    CLEAR     63  59  88 N3        30.04R
$$

ILZ033-039-045-046-055>057-062-063-100400-
EAST-CENTRAL ILLINOIS

CITY           SKY/WX    TMP DP  RH WIND       PRES   REMARKS
CHAMPAIGN      CLEAR     67  59  75 N3        30.04R
RANTOUL*       CLEAR     70  58  65 NW6       30.05R
MATTOON        CLEAR     65  60  84 CALM      30.02R
PARIS*         CLEAR     63  61  93 NW3       30.04R
$$

ILZ079-100>102-100400-
SOUTHWEST ILLINOIS

CITY           SKY/WX    TMP DP  RH WIND       PRES   REMARKS
BELLEVILLE     CLEAR     68  62  79 CALM      30.02R
CAHOKIA*       CLEAR     69  61  75 NE5       30.02R
SPARTA*        CLEAR     68  61  77 NE3       30.04R
$$

ILZ064>066-069>071-074>076-080>082-084>086-088>090-092>094-100400-
SOUTH-CENTRAL ILLINOIS

CITY           SKY/WX    TMP DP  RH WIND       PRES   REMARKS
CARBONDALE     PTCLDY    72  64  76 CALM      30.02R
CAIRO*         CLEAR     73  66  79 CALM      30.01R
MARION         PTCLDY    72  66  83 CALM      30.02R
MT. VERNON     CLEAR     70  61  73 CALM      30.03R
CENTRALIA*     CLEAR     67  60  78 CALM      30.03R
SALEM*         CLEAR     69  63  81 N6        30.03R
METROPOLIS*    CLEAR     69  65  88 CALM      30.01R
$$

ILZ067-068-072-073-078-083-087-091-100400-
SOUTHEAST ILLINOIS

CITY           SKY/WX    TMP DP  RH WIND       PRES   REMARKS
FLORA*         CLEAR     70  61  71 CALM      30.03R
HARRISBURG*    PTCLDY    71  68  90 CALM      30.02S
ROBINSON*      CLEAR     67  63  86 NW3       30.03R
CARMI*         CLOUDY    72  70  96 CALM      30.01R
$$

ABBREVIATIONS USED IN REMARKS
   TC - TEMPERATURE IN CELSIUS
  WCI - WIND CHILL INDEX
   HX - HEAT INDEX
  VSB - VISIBILITY
$$




USA.gov is the U.S. government's official web portal to all federal, state and local government web resources and services.